Weather History for Zaragoza, Spain

Change the Weather History Date:

Friday, October 5, 2012

  Actual Average Record
Temperature  
Mean Temperature 69 °F -  
Max Temperature 82 °F 67 °F 86 °F (2004)
Min Temperature 56 °F 48 °F 42 °F (2008)
Cooling Degree Days 4    
Growing Degree Days 19 (Base 50)    
Moisture  
Dew Point 54 °F    
Average Humidity 66    
Maximum Humidity 94    
Minimum Humidity 30    
Precipitation  
Precipitation 0.00 in 0.04 in - ()
Sea Level Pressure  
Sea Level Pressure 30.06 in    
Wind  
Wind Speed 3 mph ()    
Max Wind Speed 9 mph    
Max Gust Speed -    
Visibility 6.2 miles    
Events      
Averages and records for this station are not official NWS values.
T = Trace of Precipitation, MM = Missing Value Source: Averaged Metar Reports

Daily Weather History Graph

Daily Weather History Graph

Search for Another Location

Airport:

Trip Planner

Search our weather history database for the weather conditions in past years. The results will help you decide how hot, cold, wet, or windy it might be!

Date:

Astronomy

Oct. 05, 2012 Rise Set
Actual Time 8:05 AM CEST 7:38 PM CEST
Civil Twilight 7:37 AM CEST 8:06 PM CEST
Nautical Twilight 7:05 AM CEST 8:38 PM CEST
Astronomical Twilight 6:33 AM CEST 9:10 PM CEST
Moon 10:46 PM CEST (10/5) 1:04 PM CEST (10/5)
Length of Visible Light 12h 28m
Length of Day
11h 33m
Waning Gibbous, 76% of the Moon is Illuminated
Oct 5
Waning Gibbous
Oct 8
Last Quarter
Oct 15
New
Oct 22
First Quarter
Oct 29
Full

Hourly Weather History & Observations

Time (CEST) Temp. Dew Point Humidity Pressure Visibility Wind Dir Wind Speed Gust Speed Precip Events Conditions
12:00 AM 64.4 °F 51.8 °F 64% 30.04 in - Calm Calm - N/A   Clear
12:30 AM 60.8 °F 51.8 °F 72% 30.04 in - West 1.2 mph - N/A   Clear
1:00 AM 62.6 °F 51.8 °F 68% 30.04 in - West 2.3 mph - N/A   Clear
1:30 AM 60.8 °F 51.8 °F 72% 30.06 in - WSW 2.3 mph - N/A   Clear
2:00 AM 61 °F 52 °F 65% 30.04 in 9 mi SW 3.5 mph - -  
2:00 AM 59.0 °F 51.8 °F 77% 30.06 in - WSW 3.5 mph - N/A   Clear
2:30 AM 59.0 °F 51.8 °F 77% 30.06 in - SSW 3.5 mph - N/A   Clear
3:00 AM 59.0 °F 51.8 °F 77% 30.06 in - SSE 2.3 mph - N/A   Clear
3:30 AM 59.0 °F 51.8 °F 77% 30.06 in - ESE 3.5 mph - N/A   Clear
4:00 AM 59.0 °F 51.8 °F 77% 30.06 in - SE 2.3 mph - N/A   Clear
4:30 AM 59.0 °F 51.8 °F 77% 30.06 in - Calm Calm - N/A   Clear
5:00 AM 59.0 °F 51.8 °F 77% 30.06 in 6.2 mi Calm Calm - N/A   Partly Cloudy
5:30 AM 59.0 °F 53.6 °F 82% 30.06 in 6.2 mi ESE 2.3 mph - N/A   Partly Cloudy
6:00 AM 57.2 °F 51.8 °F 82% 30.06 in 6.2 mi East 3.5 mph - N/A   Partly Cloudy
6:30 AM 57.2 °F 53.6 °F 88% 30.06 in 6.2 mi East 2.3 mph - N/A   Partly Cloudy
7:00 AM 57.2 °F 53.6 °F 88% 30.06 in 6.2 mi East 2.3 mph - N/A   Partly Cloudy
7:20 AM 57.2 °F 55.4 °F 94% 30.06 in 6.2 mi East 3.5 mph - N/A   Mostly Cloudy
7:30 AM 57.2 °F 55.4 °F 94% 30.06 in 6.2 mi East 3.5 mph - N/A   Mostly Cloudy
8:00 AM 58 °F 55 °F 88% 30.07 in 5 mi East 2.3 mph - -   Mist
8:00 AM 57.2 °F 55.4 °F 94% 30.06 in 5.0 mi East 2.3 mph - N/A   Mostly Cloudy
8:30 AM 59.0 °F 55.4 °F 88% 30.09 in 5.6 mi ESE 3.5 mph - N/A   Mostly Cloudy
9:00 AM 59.0 °F 55.4 °F 88% 30.09 in 6.2 mi East 2.3 mph - N/A   Mostly Cloudy
9:30 AM 60.8 °F 57.2 °F 88% 30.09 in 5.6 mi ESE 2.3 mph - N/A   Mostly Cloudy
10:00 AM 62.6 °F 57.2 °F 82% 30.09 in 4.3 mi Variable 2.3 mph - N/A   Mostly Cloudy
10:30 AM 62.6 °F 57.2 °F 82% 30.09 in 4.3 mi Variable 2.3 mph - N/A   Mostly Cloudy
11:00 AM 64.4 °F 59.0 °F 83% 30.12 in 4.3 mi East 5.8 mph - N/A   Mostly Cloudy
11:30 AM 66.2 °F 59.0 °F 78% 30.12 in 5.0 mi East 8.1 mph - N/A   Scattered Clouds
12:00 PM 68.0 °F 59.0 °F 73% 30.12 in 5.0 mi East 8.1 mph - N/A   Scattered Clouds
12:30 PM 68.0 °F 59.0 °F 73% 30.09 in 5.0 mi East 8.1 mph - N/A   Partly Cloudy
1:00 PM 69.8 °F 59.0 °F 68% 30.09 in 5.0 mi East 5.8 mph - N/A   Unknown
1:30 PM 71.6 °F 59.0 °F 64% 30.09 in 5.6 mi East 8.1 mph - N/A   Unknown
2:00 PM 74 °F 60 °F 51% 30.06 in 6 mi East 9.2 mph - -   Haze
2:00 PM 73.4 °F 59.0 °F 61% 30.06 in 5.6 mi East 9.2 mph - N/A   Unknown
2:30 PM 75.2 °F 55.4 °F 50% 30.06 in - East 9.2 mph - N/A   Clear
3:00 PM 77.0 °F 53.6 °F 44% 30.06 in - East 9.2 mph - N/A   Clear
3:30 PM 78.8 °F 53.6 °F 42% 30.04 in - ESE 9.2 mph - N/A   Clear
4:00 PM 78.8 °F 51.8 °F 39% 30.04 in - ESE 9.2 mph - N/A   Clear
4:30 PM 80.6 °F 51.8 °F 37% 30.04 in 6.2 mi ESE 6.9 mph - N/A   Partly Cloudy
5:00 PM 80.6 °F 51.8 °F 37% 30.04 in 6.2 mi East 8.1 mph - N/A   Partly Cloudy
5:30 PM 80.6 °F 48.2 °F 32% 30.04 in 6.2 mi East 6.9 mph - N/A   Partly Cloudy
6:00 PM 80.6 °F 46.4 °F 30% 30.01 in 6.2 mi East 8.1 mph - N/A   Partly Cloudy
6:30 PM 80.6 °F 51.8 °F 37% 30.01 in 6.2 mi ESE 9.2 mph - N/A   Partly Cloudy
7:00 PM 78.8 °F 51.8 °F 39% 30.01 in - SE 8.1 mph - N/A   Clear
7:30 PM 77.0 °F 51.8 °F 41% 30.01 in - SSE 6.9 mph - N/A   Clear
8:00 PM 77 °F 53 °F 32% 29.99 in 19 mi SE 6.9 mph - -   Scattered Clouds
8:00 PM 75.2 °F 51.8 °F 44% 30.04 in - SSE 6.9 mph - N/A   Clear
8:30 PM 71.6 °F 53.6 °F 53% 30.04 in - SSE 5.8 mph - N/A   Clear
9:00 PM 71.6 °F 53.6 °F 53% 30.04 in - SSE 3.5 mph - N/A   Clear
9:30 PM 69.8 °F 53.6 °F 56% 30.06 in - East 1.2 mph - N/A   Clear
10:00 PM 68.0 °F 53.6 °F 60% 30.06 in - Variable 2.3 mph - N/A   Clear
10:30 PM 68.0 °F 53.6 °F 60% 30.06 in - NNE 1.2 mph - N/A   Clear
11:00 PM 68.0 °F 55.4 °F 64% 30.06 in - SE 2.3 mph - N/A   Clear
11:30 PM 66.2 °F 53.6 °F 64% 30.09 in - ESE 4.6 mph - N/A   Clear